EW2310 Weather Reports


Display with metric or nautical units.
time (UTC)temp
F
wind
direction
speed
MPH
gust
MPH
rain 1hr
in
rain 24hr
in
rain mn
in
humidity
%
barometer
mb
20260904005039 77 335 0.0 0.0 0.00 0.00 0.00 64 1015.1
20260904004539 77 335 0.0 3.0 0.00 0.00 0.00 64 1015.2
20260904004042 77 335 2.0 3.0 0.00 0.00 0.00 64 1015.2
20260904003542 78 334 1.0 2.0 0.00 0.00 0.00 64 1015.2
20260904003039 78 334 1.0 4.0 0.00 0.00 0.00 64 1015.2
20260904002539 78 313 3.0 4.0 0.00 0.00 0.00 64 1015.2
20260904002039 78 335 2.0 4.0 0.00 0.00 0.00 64 1015.3
20260904001539 78 355 4.0 5.0 0.00 0.00 0.00 64 1015.3
20260904001039 78 338 3.0 6.0 0.00 0.00 0.00 64 1015.3
20260904000539 79 325 0.0 4.0 0.00 0.00 0.00 64 1015.4
20260904000039 79 316 0.0 4.0 0.00 0.00 0.00 63 1015.3
20260903235539 79 317 1.0 3.0 0.00 0.00 0.00 62 1015.4
20260903235042 79 329 0.0 3.0 0.00 0.00 0.00 62 1015.3
20260903234539 79 306 0.0 1.0 0.00 0.00 0.00 62 1015.3
20260903234039 79 306 0.0 2.0 0.00 0.00 0.00 62 1015.3
20260903233541 79 304 0.0 3.0 0.00 0.00 0.00 62 1015.3
20260903233039 79 300 0.0 2.0 0.00 0.00 0.00 62 1015.2
20260903232539 79 155 0.0 2.0 0.00 0.00 0.00 62 1015.1
20260903232040 79 154 2.0 1.0 0.00 0.00 0.00 63 1015.1
20260903231542 78 154 1.0 2.0 0.00 0.00 0.00 62 1015.1
20260903231042 78 154 0.0 2.0 0.00 0.00 0.00 64 1015.1
20260903230539 77 154 0.0 3.0 0.00 0.00 0.00 65 1015.1
20260903230039 77 151 1.0 2.0 0.00 0.00 0.00 66 1015.1
20260903225539 77 151 2.0 2.0 0.00 0.00 0.00 67 1015.1
20260903225039 77 151 1.0 3.0 0.00 0.00 0.00 68 1015.1
20260903224539 77 151 2.0 7.0 0.00 0.00 0.00 67 1015.1
20260903224039 79 140 7.0 7.0 0.00 0.00 0.00 64 1015.1
20260903223539 80 32 2.0 4.0 0.00 0.00 0.00 62 1015.0
20260903223039 80 9 0.0 5.0 0.00 0.00 0.00 62 1015.0
20260903222539 80 340 4.0 5.0 0.00 0.00 0.00 62 1014.9
20260903222039 80 317 3.0 6.0 0.00 0.00 0.00 62 1014.9
20260903221539 80 313 5.0 6.0 0.00 0.00 0.00 62 1014.8
20260903221039 80 310 5.0 8.0 0.00 0.00 0.00 63 1014.7
20260903220539 80 355 4.0 8.0 0.00 0.00 0.00 63 1014.7
20260903220042 80 340 3.0 8.0 0.00 0.00 0.00 63 1014.7
20260903215539 79 346 3.0 7.0 0.00 0.00 0.00 64 1014.7
20260903215039 79 329 4.0 10.0 0.00 0.00 0.00 65 1014.7
20260903214539 79 327 3.0 10.0 0.00 0.00 0.00 65 1014.8
20260903214039 79 329 5.0 10.0 0.00 0.00 0.00 65 1014.8
20260903213539 80 325 3.0 10.0 0.00 0.00 0.00 65 1014.7
20260903213039 80 326 6.0 6.0 0.00 0.00 0.00 65 1014.8
20260903212539 80 321 4.0 10.0 0.00 0.00 0.00 65 1014.7
20260903212042 80 303 8.0 9.0 0.00 0.00 0.00 65 1014.6
20260903211539 80 332 3.0 9.0 0.00 0.00 0.00 65 1014.6
20260903211039 80 300 4.0 6.0 0.00 0.00 0.00 65 1014.7
20260903210539 80 328 3.0 10.0 0.00 0.00 0.00 65 1014.7
20260903210039 80 338 8.0 8.0 0.00 0.00 0.00 66 1014.6
20260903205542 80 330 2.0 9.0 0.00 0.00 0.00 66 1014.6
20260903205042 80 306 4.0 8.0 0.00 0.00 0.00 66 1014.6
20260903204542 80 322 4.0 8.0 0.00 0.00 0.00 66 1014.7
20260903204039 80 313 2.0 4.0 0.00 0.00 0.00 66 1014.7
20260903203539 80 297 0.0 5.0 0.00 0.00 0.00 66 1014.7
20260903203039 80 313 4.0 8.0 0.00 0.00 0.00 66 1014.5
20260903202539 80 320 4.0 9.0 0.00 0.00 0.00 66 1014.5
20260903202039 81 310 3.0 9.0 0.00 0.00 0.00 66 1014.5
20260903201542 81 338 5.0 10.0 0.00 0.00 0.00 66 1014.5
20260903201039 81 326 4.0 8.0 0.00 0.00 0.00 66 1014.5
20260903200539 81 320 2.0 5.0 0.00 0.00 0.00 66 1014.5
20260903200039 81 304 2.0 6.0 0.00 0.00 0.00 66 1014.5
20260903195542 81 334 6.0 7.0 0.00 0.00 0.00 66 1014.5
20260903195042 81 322 3.0 5.0 0.00 0.00 0.00 66 1014.5
20260903194542 81 325 1.0 7.0 0.00 0.00 0.00 66 1014.5
20260903194042 81 323 2.0 4.0 0.00 0.00 0.00 66 1014.4
20260903193539 81 292 2.0 6.0 0.00 0.00 0.00 66 1014.5
20260903193039 82 297 3.0 6.0 0.00 0.00 0.00 66 1014.4
20260903192539 82 311 1.0 8.0 0.00 0.00 0.00 66 1014.4
20260903192042 82 283 2.0 4.0 0.00 0.00 0.00 66 1014.3
20260903191539 82 248 2.0 5.0 0.00 0.00 0.00 66 1014.2
20260903191039 82 327 3.0 6.0 0.00 0.00 0.00 66 1014.2
20260903190542 82 309 1.0 4.0 0.00 0.00 0.00 66 1014.2
20260903190042 82 314 3.0 3.0 0.00 0.00 0.00 66 1014.3
20260903185539 82 322 1.0 10.0 0.00 0.00 0.00 66 1014.3
20260903185039 82 321 4.0 5.0 0.00 0.00 0.00 66 1014.3
20260903184539 82 320 3.0 7.0 0.00 0.00 0.00 65 1014.3
20260903184039 82 304 2.0 9.0 0.00 0.00 0.00 65 1014.3
20260903183539 82 321 1.0 8.0 0.00 0.00 0.00 64 1014.2
20260903183039 83 319 1.0 13.0 0.00 0.00 0.00 64 1014.1
20260903182539 83 274 4.0 5.0 0.00 0.00 0.00 63 1014.1
20260903182047 83 290 1.0 7.0 0.00 0.00 0.00 63 1014.1
20260903181539 83 329 1.0 5.0 0.00 0.00 0.00 62 1014.0
20260903181039 83 322 2.0 4.0 0.00 0.00 0.00 61 1013.9
20260903180539 83 313 2.0 8.0 0.00 0.00 0.00 60 1013.8
20260903180039 83 254 4.0 8.0 0.00 0.00 0.00 60 1013.7
20260903175539 84 246 3.0 9.0 0.00 0.00 0.00 58 1013.7
20260903175039 84 348 2.0 9.0 0.00 0.00 0.00 57 1013.8
20260903174539 84 341 2.0 7.0 0.00 0.00 0.00 56 1013.9
20260903174039 84 183 3.0 9.0 0.00 0.00 0.00 57 1013.8
20260903173542 85 267 6.0 8.0 0.00 0.00 0.00 57 1013.8
20260903173039 85 273 7.0 7.0 0.00 0.00 0.00 56 1013.8
20260903172539 85 319 4.0 8.0 0.00 0.00 0.00 56 1013.8
20260903172039 85 265 2.0 8.0 0.00 0.00 0.00 57 1013.8
20260903171539 85 321 3.0 6.0 0.00 0.00 0.00 56 1013.8
20260903171042 86 246 3.0 7.0 0.00 0.00 0.00 55 1013.8
20260903170539 86 254 3.0 8.0 0.00 0.00 0.00 55 1013.8
20260903170039 86 94 2.0 8.0 0.00 0.00 0.00 55 1013.8
20260903165539 86 71 3.0 11.0 0.00 0.00 0.00 54 1013.8
20260903165039 87 105 6.0 10.0 0.00 0.00 0.00 53 1013.7
20260903164542 87 308 4.0 13.0 0.00 0.00 0.00 52 1013.7
20260903164042 87 338 6.0 11.0 0.00 0.00 0.00 51 1013.7
20260903163539 88 10 1.0 10.0 0.00 0.00 0.00 51 1013.7
20260903163039 88 279 2.0 13.0 0.00 0.00 0.00 50 1013.7
20260903162539 88 267 1.0 11.0 0.00 0.00 0.00 49 1013.7
20260903162039 88 153 2.0 15.0 0.00 0.00 0.00 49 1013.7
20260903161539 88 254 3.0 15.0 0.00 0.00 0.00 49 1013.7
20260903161039 88 270 2.0 10.0 0.00 0.00 0.00 50 1013.7
20260903160539 88 211 3.0 8.0 0.00 0.00 0.00 50 1013.6
20260903160039 88 5 1.0 8.0 0.00 0.00 0.00 52 1013.6
20260903155539 88 229 4.0 13.0 0.00 0.00 0.00 54 1013.7
20260903155039 88 280 3.0 7.0 0.00 0.00 0.00 54 1013.7
20260903154539 88 84 2.0 9.0 0.00 0.00 0.00 52 1013.7
20260903154042 89 86 3.0 8.0 0.00 0.00 0.00 50 1013.7
20260903153539 89 82 2.0 11.0 0.00 0.00 0.00 49 1013.6
20260903153039 89 111 2.0 8.0 0.00 0.00 0.00 48 1013.6
20260903152539 89 26 2.0 7.0 0.00 0.00 0.00 48 1013.6
20260903152042 89 30 1.0 9.0 0.00 0.00 0.00 50 1013.6
20260903151542 89 190 2.0 8.0 0.00 0.00 0.00 49 1013.6
20260903151042 89 257 4.0 10.0 0.00 0.00 0.00 46 1013.6
20260903150539 90 44 2.0 9.0 0.00 0.00 0.00 43 1013.6
20260903150039 90 194 4.0 11.0 0.00 0.00 0.00 41 1013.5
20260903145539 90 193 3.0 7.0 0.00 0.00 0.00 43 1013.6
20260903145039 90 5 3.0 7.0 0.00 0.00 0.00 44 1013.6
20260903144539 90 41 1.0 9.0 0.00 0.00 0.00 43 1013.6
20260903144042 90 209 3.0 12.0 0.00 0.00 0.00 43 1013.7
20260903143539 90 71 2.0 8.0 0.00 0.00 0.00 43 1013.7
20260903143042 90 213 4.0 7.0 0.00 0.00 0.00 44 1013.8
20260903142542 89 92 2.0 10.0 0.00 0.00 0.00 45 1013.7
20260903142039 89 268 2.0 9.0 0.00 0.00 0.00 45 1013.8
20260903141539 89 172 2.0 11.0 0.00 0.00 0.00 47 1013.8
20260903141039 89 227 3.0 7.0 0.00 0.00 0.00 46 1013.8
20260903140539 89 82 3.0 7.0 0.00 0.00 0.00 46 1013.8
20260903140039 89 158 3.0 8.0 0.00 0.00 0.00 47 1013.8
20260903135539 89 133 1.0 6.0 0.00 0.00 0.00 47 1013.8
20260903135039 89 74 1.0 6.0 0.00 0.00 0.00 46 1013.8
20260903134539 89 186 3.0 8.0 0.00 0.00 0.00 45 1013.9
20260903134039 89 222 5.0 7.0 0.00 0.00 0.00 45 1013.9
20260903133539 89 40 1.0 6.0 0.00 0.00 0.00 46 1013.9
20260903133039 89 210 2.0 7.0 0.00 0.00 0.00 47 1013.9
20260903132542 88 61 2.0 10.0 0.00 0.00 0.00 49 1014.0
20260903132039 88 221 5.0 9.0 0.00 0.00 0.00 50 1014.1
20260903131539 89 48 2.0 8.0 0.00 0.00 0.00 49 1014.1
20260903131039 89 51 3.0 8.0 0.00 0.00 0.00 49 1014.1
20260903130539 89 138 5.0 9.0 0.00 0.00 0.00 48 1014.0
20260903130039 89 144 3.0 7.0 0.00 0.00 0.00 49 1014.1
20260903125539 89 325 3.0 11.0 0.00 0.00 0.00 48 1014.2
20260903125039 89 82 3.0 11.0 0.00 0.00 0.00 48 1014.2
20260903124539 89 18 4.0 8.0 0.00 0.00 0.00 48 1014.2
20260903124039 89 47 3.0 8.0 0.00 0.00 0.00 46 1014.2
20260903123542 89 232 5.0 7.0 0.00 0.00 0.00 48 1014.2
20260903123039 89 175 2.0 9.0 0.00 0.00 0.00 48 1014.2
20260903122542 89 205 4.0 10.0 0.00 0.00 0.00 48 1014.3
20260903122042 89 55 2.0 8.0 0.00 0.00 0.00 49 1014.3
20260903121539 88 58 5.0 10.0 0.00 0.00 0.00 50 1014.3
20260903121039 88 165 2.0 8.0 0.00 0.00 0.00 51 1014.4
20260903120539 88 252 2.0 9.0 0.00 0.00 0.00 51 1014.4
20260903120039 88 206 2.0 7.0 0.00 0.00 0.00 51 1014.5
20260903115539 88 49 3.0 7.0 0.00 0.00 0.00 51 1014.4
20260903115039 88 51 6.0 8.0 0.00 0.00 0.00 48 1014.4
20260903114539 88 343 4.0 7.0 0.00 0.00 0.00 48 1014.4
20260903114039 88 182 3.0 10.0 0.00 0.00 0.00 48 1014.4
20260903113539 88 24 1.0 8.0 0.00 0.00 0.00 48 1014.4
20260903113039 88 26 5.0 8.0 0.00 0.00 0.00 47 1014.4
20260903112542 89 196 1.0 7.0 0.00 0.00 0.00 47 1014.4
20260903112039 89 65 1.0 6.0 0.00 0.00 0.00 47 1014.5
20260903111539 89 254 3.0 5.0 0.00 0.00 0.00 47 1014.5
20260903111039 89 131 2.0 6.0 0.00 0.00 0.00 46 1014.6
20260903110539 89 31 5.0 7.0 0.00 0.00 0.00 46 1014.6
20260903110039 89 318 2.0 5.0 0.00 0.00 0.00 45 1014.6
20260903105539 89 143 2.0 4.0 0.00 0.00 0.00 45 1014.6
20260903105039 89 25 2.0 6.0 0.00 0.00 0.00 45 1014.6
20260903104539 90 346 1.0 4.0 0.00 0.00 0.00 45 1014.6
20260903104042 90 29 2.0 4.0 0.00 0.00 0.00 45 1014.7
20260903103539 90 219 1.0 6.0 0.00 0.00 0.00 45 1014.7
20260903103039 90 300 1.0 4.0 0.00 0.00 0.00 44 1014.7
20260903102539 90 217 3.0 6.0 0.00 0.00 0.00 45 1014.9
20260903102039 90 17 2.0 5.0 0.00 0.00 0.00 42 1014.9
20260903101539 90 252 2.0 8.0 0.00 0.00 0.00 41 1014.9
20260903101039 90 211 1.0 5.0 0.00 0.00 0.00 41 1015.0
20260903100539 89 269 1.0 4.0 0.00 0.00 0.00 43 1015.0
20260903100039 88 304 3.0 8.0 0.00 0.00 0.00 43 1015.1
20260903095539 88 349 1.0 6.0 0.00 0.00 0.00 43 1015.1
20260903095039 88 300 5.0 10.0 0.00 0.00 0.00 43 1015.1
20260903094539 88 5 5.0 5.0 0.00 0.00 0.00 42 1015.2
20260903094039 88 323 3.0 6.0 0.00 0.00 0.00 44 1015.3
20260903093539 87 340 0.0 5.0 0.00 0.00 0.00 44 1015.3
20260903093039 87 302 1.0 10.0 0.00 0.00 0.00 45 1015.3
20260903092539 87 304 2.0 5.0 0.00 0.00 0.00 45 1015.3
20260903092039 87 327 0.0 6.0 0.00 0.00 0.00 45 1015.4
20260903091539 86 55 1.0 4.0 0.00 0.00 0.00 46 1015.4
20260903091042 86 340 4.0 8.0 0.00 0.00 0.00 45 1015.5
20260903090539 86 325 1.0 5.0 0.00 0.00 0.00 46 1015.5
20260903090039 85 5 0.0 9.0 0.00 0.00 0.00 48 1015.5
20260903085539 84 326 3.0 8.0 0.00 0.00 0.00 48 1015.4
20260903085039 84 319 6.0 6.0 0.00 0.00 0.00 48 1015.4
20260903084539 84 324 4.0 8.0 0.00 0.00 0.00 48 1015.4
20260903084039 84 15 0.0 5.0 0.00 0.00 0.00 49 1015.4
20260903083539 83 338 4.0 7.0 0.00 0.00 0.00 50 1015.4
20260903083042 83 335 4.0 9.0 0.00 0.00 0.00 50 1015.3
20260903082539 83 331 4.0 7.0 0.00 0.00 0.00 51 1015.2
20260903082039 82 322 4.0 8.0 0.00 0.00 0.00 50 1015.2
20260903081538 83 340 4.0 6.0 0.00 0.00 0.00 50 1015.2
20260903081038 82 317 2.0 8.0 0.00 0.00 0.00 52 1015.1
20260903080539 82 324 5.0 8.0 0.00 0.00 0.00 52 1015.1
20260903080039 82 5 4.0 9.0 0.00 0.00 0.00 52 1015.1
20260903075539 82 309 4.0 7.0 0.00 0.00 0.00 52 1015.1
20260903075039 82 290 1.0 10.0 0.00 0.00 0.00 53 1015.0
20260903074539 82 329 5.0 9.0 0.00 0.00 0.00 52 1015.1
20260903074039 81 327 3.0 8.0 0.00 0.00 0.00 54 1015.1
20260903073539 81 355 4.0 9.0 0.00 0.00 0.00 53 1015.0
20260903073038 82 330 8.0 9.0 0.00 0.00 0.00 53 1015.0
20260903072539 82 318 3.0 4.0 0.00 0.00 0.00 53 1015.0
20260903072039 81 319 1.0 8.0 0.00 0.00 0.00 54 1014.9
20260903071539 81 320 4.0 5.0 0.00 0.00 0.00 55 1014.8
20260903071039 80 337 3.0 7.0 0.00 0.00 0.00 55 1014.8
20260903070539 80 17 5.0 5.0 0.00 0.00 0.00 55 1014.9
20260903070039 79 355 0.0 6.0 0.00 0.00 0.00 56 1014.8
20260903065538 79 344 2.0 7.0 0.00 0.00 0.00 56 1014.9
20260903065039 79 54 2.0 5.0 0.00 0.00 0.00 56 1015.0
20260903064538 79 60 3.0 8.0 0.00 0.00 0.00 57 1014.8
20260903064042 78 57 3.0 5.0 0.00 0.00 0.00 58 1014.8
20260903063539 78 11 3.0 8.0 0.00 0.00 0.00 58 1014.8
20260903063039 78 32 4.0 8.0 0.00 0.00 0.00 58 1014.9
20260903062538 77 15 2.0 9.0 0.00 0.00 0.00 59 1014.8
20260903062042 76 0 4.0 9.0 0.00 0.00 0.00 60 1014.8
20260903061542 76 321 6.0 10.0 0.00 0.00 0.00 61 1014.7
20260903061039 75 333 4.0 9.0 0.00 0.00 0.00 62 1014.7
20260903060539 75 343 4.0 6.0 0.00 0.00 0.00 63 1014.7
20260903060039 75 355 3.0 12.0 0.00 0.00 0.00 63 1014.6
20260903055539 74 5 3.0 9.0 0.00 0.00 0.00 64 1014.7
20260903055039 74 330 9.0 11.0 0.00 0.00 0.00 64 1014.5
20260903054539 74 336 5.0 12.0 0.00 0.00 0.00 64 1014.6
20260903054039 74 346 9.0 11.0 0.00 0.00 0.00 65 1014.5
20260903053538 73 317 6.0 10.0 0.00 0.00 0.00 65 1014.5
20260903053038 73 317 5.0 10.0 0.00 0.00 0.00 65 1014.4
20260903052539 73 302 5.0 10.0 0.00 0.00 0.00 66 1014.4
20260903052038 73 318 5.0 11.0 0.00 0.00 0.00 66 1014.4
20260903051539 73 331 4.0 11.0 0.00 0.00 0.00 66 1014.4
20260903051038 72 10 7.0 12.0 0.00 0.00 0.00 66 1014.4
20260903050539 72 337 6.0 11.0 0.00 0.00 0.00 67 1014.3
20260903050038 72 318 5.0 10.0 0.00 0.00 0.00 67 1014.3
20260903045539 72 332 8.0 11.0 0.00 0.00 0.00 67 1014.3
20260903045039 72 327 6.0 11.0 0.00 0.00 0.00 67 1014.3
20260903044539 72 311 6.0 11.0 0.00 0.00 0.00 67 1014.2
20260903044038 73 311 5.0 12.0 0.00 0.00 0.00 67 1014.2
20260903043538 73 5 9.0 12.0 0.00 0.00 0.00 66 1014.1
20260903043039 73 323 10.0 12.0 0.00 0.00 0.00 66 1014.2
20260903042539 73 330 5.0 11.0 0.00 0.00 0.00 66 1014.1
20260903042038 73 317 4.0 10.0 0.00 0.00 0.00 67 1014.1
20260903041541 73 338 6.0 10.0 0.00 0.00 0.00 67 1014.1
20260903041038 73 336 5.0 10.0 0.00 0.00 0.00 68 1014.1
20260903040541 73 319 4.0 10.0 0.00 0.00 0.00 67 1014.2
20260903040038 73 0 4.0 9.0 0.00 0.00 0.00 67 1014.2
20260903035538 73 315 5.0 9.0 0.00 0.00 0.00 67 1014.2
20260903035038 73 325 8.0 9.0 0.00 0.00 0.00 67 1014.2
20260903034539 73 311 4.0 9.0 0.00 0.00 0.00 67 1014.3
20260903034039 73 322 6.0 8.0 0.00 0.00 0.00 67 1014.3
20260903033538 74 303 3.0 8.0 0.00 0.00 0.00 66 1014.3
20260903033042 74 321 5.0 9.0 0.00 0.00 0.00 66 1014.3
20260903032538 74 328 3.0 10.0 0.00 0.00 0.00 65 1014.3
20260903032042 74 329 6.0 9.0 0.00 0.00 0.00 65 1014.2
20260903031538 75 336 8.0 10.0 0.00 0.00 0.00 64 1014.3
20260903031039 75 331 6.0 8.0 0.00 0.00 0.00 64 1014.2
20260903030542 75 308 5.0 8.0 0.00 0.00 0.00 64 1014.3
20260903030038 75 331 4.0 10.0 0.00 0.00 0.00 65 1014.3
20260903025538 74 333 5.0 9.0 0.00 0.00 0.00 65 1014.4
20260903025038 74 342 4.0 9.0 0.00 0.00 0.00 65 1014.4
20260903024539 74 333 3.0 10.0 0.00 0.00 0.00 66 1014.4
20260903024042 74 312 4.0 10.0 0.00 0.00 0.00 67 1014.4
20260903023539 74 324 4.0 10.0 0.00 0.00 0.00 67 1014.5
20260903023038 74 346 9.0 9.0 0.00 0.00 0.00 67 1014.5
20260903022542 74 0 8.0 9.0 0.00 0.00 0.00 67 1014.5
20260903022044 74 311 4.0 10.0 0.00 0.00 0.00 68 1014.5
20260903021538 74 313 3.0 8.0 0.00 0.00 0.00 68 1014.6
20260903021040 74 284 3.0 9.0 0.00 0.00 0.00 68 1014.7
20260903020539 75 309 3.0 8.0 0.00 0.00 0.00 68 1014.7
20260903020039 75 336 5.0 8.0 0.00 0.00 0.00 68 1014.7
20260903015542 75 331 9.0 9.0 0.00 0.00 0.00 69 1014.7
20260903015038 75 331 4.0 8.0 0.00 0.00 0.00 69 1014.7
20260903014542 75 322 4.0 8.0 0.00 0.00 0.00 69 1014.7
20260903014039 75 309 4.0 8.0 0.00 0.00 0.00 69 1014.7
20260903013538 75 328 4.0 9.0 0.00 0.00 0.00 68 1014.6
20260903013038 75 328 8.0 8.0 0.00 0.00 0.00 68 1014.7
20260903012538 75 314 2.0 9.0 0.00 0.00 0.00 68 1014.7
20260903012039 75 336 3.0 9.0 0.00 0.00 0.00 67 1014.7
20260903011539 75 319 4.0 10.0 0.00 0.00 0.00 66 1014.7
20260903011038 75 315 3.0 8.0 0.00 0.00 0.00 66 1014.7
20260903010539 75 325 3.0 5.0 0.00 0.00 0.00 66 1014.8
20260903010038 76 319 3.0 8.0 0.00 0.00 0.00 65 1014.8
20260903005538 76 306 5.0 6.0 0.00 0.00 0.00 65 1014.8